sat.trackr.live / text

‹ back to catalog

STARLINK-6316

NORAD 57335 · 2023-099H

PAYLOAD ACTIVE UNKNOWN

§ Identity

Operator
Country
US
Launch date
2023-07-16
Launch site
AFETR
Launch vehicle
Mass (kg)
RCS (m²)

Purposes: comms

External: N2YO · Heavens-Above · Gunter

§ Orbital elements

Epoch: 2026-09-20T22:32:28.817952Z

Period
94.27 min
Inclination
43.0030°
Eccentricity
0.0000681
Mean motion
15.27574742 rev/d
Perigee alt
482.6 km
Apogee alt
483.5 km
Semi-major
6,861.2 km
B*
4.4946e-6
RAAN
226.6463°
Arg perigee
278.0412°
Mean anomaly
82.0362°
Rev number
17,597

§ Raw data

STARLINK-63161 57335U 23099H   26263.93922243 -.00000138  00000+0  44946-5 0  99932 57335  43.0030 226.6463 0000681 278.0412  82.0362 15.27574742175977

JSON: /api/v1/satellites/57335 · /tle

For live sub-satellite position, see the globe view (requires WebGL).

§ Visibility from observer

Set your observer location to see the next 7 days of passes ≥ 10°. The values pass through the URL so the page stays shareable.

No JS? Fill the form by hand. The geolocation button needs JavaScript.